Theta_e
308 308 309 309 309 307 304 299 289 307 307 291 290 287 292 294 294 297 295 296 295 295 297 297 298 302 305 309 308 304 308 307 302 304 309 311 308 305 306 299 299 301 299 300
307 308 308 308 308 305 302 295 297 307 303 285 286 293 291 293 292 293 293 293 295 298 296 294 301 304 309 310 308 307 309 304 300 302 306 309 305 307 308 309 308 302 296 299
308 308 308 308 308 306 304 297 289 298 300 298 292 289 289 289 296 294 293 293 295 295 294 299 298 302 308 309 310 311 312 307 303 299 303 307 304 305 306 305 301 300 301 303
308 308 308 307 307 306 301 298 292 295 289 291 291 290 290 287 287 295 295 293 293 293 291 294 298 299 300 305 310 311 312 302 307 306 307 306 305 304 304 303 305 300 303 304
308 308 308 307 307 306 299 293 293 296 292 293 290 289 289 288 289 291 291 291 293 294 292 293 293 296 298 299 302 308 314 303 307 302 306 306 303 305 305 305 304 304 305 306
308 308 308 308 307 305 298 300 301 296 291 291 289 290 290 290 292 293 295 294 293 291 294 298 300 301 302 302 301 303 310 306 303 300 304 304 300 304 305 306 307 307 303 309
307 308 308 308 307 306 302 301 300 291 287 291 288 291 291 291 292 291 294 295 294 296 302 301 301 300 300 303 305 309 308 307 305 301 303 293 304 311 309 308 308 310 310 311
307 308 308 308 307 306 302 303 297 292 289 291 291 291 292 293 294 293 293 295 298 302 300 293 292 295 299 301 305 307 311 308 302 299 298 302 303 307 307 307 307 312 310 311
307 308 308 308 307 306 304 306 304 295 291 291 294 292 293 291 291 292 295 299 302 302 297 292 286 288 295 296 300 308 309 311 305 302 297 294 304 309 312 312 302 314 314 314
307 308 308 307 307 307 306 306 308 297 291 295 296 291 292 295 293 291 295 297 297 301 294 288 287 287 295 292 296 299 301 303 300 300 301 301 309 311 313 300 304 316 316 317
307 307 308 308 308 307 306 307 309 301 294 296 299 299 295 295 294 289 294 296 297 295 291 290 290 288 291 293 297 296 299 298 300 302 299 295 312 310 306 316 327 322 319 319
307 307 307 308 307 307 306 303 310 309 297 296 302 302 303 301 299 295 296 294 297 296 295 294 294 292 291 291 291 303 294 303 301 303 304 319 317 318 324 324 320 318 320 320
307 307 307 307 307 308 307 304 310 307 299 299 301 298 305 307 305 305 295 298 299 299 304 298 296 290 294 287 290 293 301 304 300 302 308 312 314 318 320 320 320 321 322 322
307 307 306 307 307 308 306 304 309 305 300 292 296 306 302 309 308 306 302 302 303 302 300 297 296 292 298 292 294 293 296 299 300 301 307 312 313 316 317 318 320 320 321 320
307 307 307 306 307 307 307 306 311 311 299 292 295 303 305 306 305 304 304 304 301 299 295 296 293 295 296 296 295 292 297 296 294 299 302 303 313 313 315 319 318 321 320 321
306 307 306 306 306 307 305 300 308 311 309 295 292 302 301 304 304 303 302 302 301 299 296 295 297 300 298 292 291 297 299 301 302 300 304 305 308 316 317 318 319 321 320 322
306 306 306 306 306 306 301 299 303 303 306 296 291 294 301 303 303 302 301 303 300 298 297 295 295 295 297 293 289 296 300 301 303 304 302 302 309 311 314 318 320 319 322 322
306 306 307 306 306 305 303 311 307 305 301 300 291 292 296 303 298 296 303 298 298 298 297 297 294 296 295 291 295 297 298 299 301 302 305 304 306 311 312 316 317 317 318 320
306 306 307 307 305 303 305 306 307 307 301 293 293 289 289 301 298 297 299 300 291 298 294 294 296 293 290 294 295 297 298 298 299 302 304 304 304 308 310 311 315 314 316 319
306 307 305 301 304 307 308 305 300 299 299 298 292 299 292 298 295 293 295 296 292 289 293 297 293 292 297 299 299 300 300 301 302 300 300 303 304 307 309 308 309 313 314 316
306 301 300 306 310 306 303 296 295 296 293 297 297 298 294 300 291 289 293 290 292 287 292 291 290 290 297 302 300 301 302 303 303 306 305 306 308 307 308 308 309 309 313 316
303 302 305 307 304 300 293 293 295 293 291 296 296 296 298 299 296 289 289 286 290 284 295 291 288 295 301 302 303 302 304 304 303 304 305 306 308 308 309 309 310 311 312 313
309 303 300 298 298 289 288 286 289 291 296 297 297 295 296 298 295 288 288 284 285 290 288 287 290 293 298 301 304 304 304 304 305 304 305 307 307 308 308 309 311 313 315 318
300 296 288 293 289 291 293 292 295 297 297 298 298 295 295 297 290 289 285 289 287 285 284 285 290 290 295 298 303 303 304 306 307 305 306 305 306 306 309 310 312 312 314 318
298 297 289 292 296 298 298 299 298 300 301 300 299 297 297 294 290 290 288 286 284 285 284 287 288 291 293 295 296 296 297 301 305 308 308 309 308 308 311 313 313 314 315 316
300 298 294 297 296 295 297 297 297 301 300 301 299 293 291 289 289 286 284 283 281 284 285 289 295 294 295 295 295 297 298 298 301 304 306 308 311 312 314 314 315 313 316 315
297 297 299 298 297 296 297 298 298 302 299 295 294 288 288 293 288 286 286 284 286 289 294 298 300 300 300 299 301 300 299 299 301 303 303 307 313 314 315 315 317 320 324 323
Wind_Speed
24 24 20 17 18 7 5 0 4 4 10 7 2 10 18 20 27 31 29 26 27 27 25 22 22 30 32 28 30 35 32 11 16 26 26 25 23 23 17 11 14 10 10 3
24 23 20 17 8 10 1 3 6 4 4 5 9 15 22 25 26 27 27 23 22 26 26 14 16 25 30 34 32 30 27 21 13 19 23 23 23 24 19 13 9 14 12 10
24 22 19 14 8 9 5 4 4 4 6 5 11 16 21 21 20 26 23 19 25 22 24 20 18 22 17 29 29 33 22 19 22 16 19 22 27 24 23 19 13 13 14 14
24 23 17 10 8 5 4 4 6 1 5 6 9 13 21 21 15 23 15 20 22 22 20 23 16 18 21 25 26 25 21 26 21 23 23 27 25 24 26 25 19 18 16 16
26 22 15 9 5 3 4 5 5 7 11 10 13 10 14 22 19 20 17 17 19 19 23 18 20 23 20 12 23 19 20 21 21 24 27 26 28 27 26 25 23 22 20 18
25 20 15 12 5 9 4 4 4 6 7 12 10 11 10 8 14 14 16 16 18 17 20 18 19 22 21 25 22 23 17 16 22 18 23 23 25 26 26 21 21 22 20 14
24 24 15 11 10 11 2 2 4 3 9 10 4 15 7 16 17 15 16 15 20 16 21 11 23 24 26 26 24 19 14 22 16 15 17 27 12 21 22 20 18 19 17 16
23 22 18 14 9 5 5 1 3 3 6 13 16 9 14 11 12 16 18 17 19 5 11 10 13 15 16 21 20 19 19 16 11 16 15 13 24 20 23 21 18 18 18 15
23 22 21 14 11 6 7 4 3 2 5 5 17 16 13 10 14 16 21 17 16 1 10 3 4 6 7 9 8 16 15 14 12 14 16 21 14 22 15 14 15 15 16 13
23 23 22 10 12 10 5 4 4 3 4 12 12 10 9 9 10 8 16 14 10 10 8 3 3 6 10 9 18 15 14 15 16 13 8 13 19 14 17 17 7 13 14 15
22 22 20 16 12 9 5 6 5 3 4 15 18 13 9 9 8 3 11 9 10 6 8 6 6 5 6 9 16 11 14 15 12 15 13 11 13 17 21 7 6 6 14 14
21 21 18 15 11 9 8 5 4 3 4 12 19 16 13 13 13 2 5 8 9 7 6 7 4 7 4 10 7 10 8 3 10 8 11 3 6 8 7 8 7 7 14 12
21 20 18 16 13 12 10 7 7 4 4 11 5 8 15 12 13 10 4 1 5 5 6 5 3 4 1 1 8 10 7 13 7 9 17 14 11 8 7 10 8 7 9 8
21 20 18 16 15 12 11 7 5 4 5 5 6 3 4 14 14 16 14 8 5 8 8 4 4 3 8 6 10 9 11 10 14 13 11 11 2 9 6 9 8 10 8 7
21 20 18 17 15 13 11 9 4 4 4 6 10 16 4 3 5 8 8 6 8 8 8 6 7 7 5 5 5 10 9 4 4 5 19 13 13 17 28 13 3 3 9 8
22 21 19 16 13 10 7 3 1 3 3 5 6 7 5 10 5 8 10 7 8 9 8 8 4 8 2 3 7 10 10 17 13 13 15 19 22 14 20 20 4 10 6 10
23 20 17 13 8 6 4 5 6 8 8 2 5 5 3 10 8 8 8 10 7 8 10 9 11 8 6 7 13 14 11 15 10 7 17 22 21 8 9 28 11 10 13 12
23 18 13 10 8 9 6 1 3 4 4 3 4 5 4 3 3 5 6 6 6 7 9 11 9 11 10 12 16 14 15 14 16 12 18 21 19 24 9 20 10 7 1 2
23 17 12 4 6 3 1 4 6 5 4 3 3 4 4 4 3 2 3 2 4 5 10 11 9 10 12 15 17 19 16 12 16 17 18 24 20 20 21 15 10 8 6 7
23 8 5 1 3 2 5 5 3 4 5 5 6 1 5 4 0 3 3 4 4 3 7 8 11 13 18 21 19 17 17 15 14 17 17 17 17 16 21 14 13 9 9 6
4 5 4 7 5 4 1 3 3 3 4 4 4 7 9 3 3 2 3 4 4 4 3 3 5 12 13 19 22 19 18 21 18 14 16 18 14 15 17 17 13 12 11 9
6 5 7 5 4 1 4 5 3 2 5 6 9 12 9 2 3 1 1 2 3 5 8 3 5 6 15 16 20 21 19 21 19 16 17 12 15 16 17 15 12 13 14 13
5 4 4 4 4 6 6 7 5 6 8 9 12 11 6 2 3 1 1 3 4 6 4 4 4 10 14 14 16 12 13 20 19 18 18 17 18 17 18 18 16 14 13 12
2 5 7 5 4 4 4 6 8 5 7 12 11 5 2 2 1 1 3 1 3 3 4 5 5 13 15 14 13 12 13 15 14 15 18 19 18 18 20 19 17 16 16 16
3 3 4 3 3 8 6 8 8 7 8 8 5 1 4 5 3 4 4 6 5 4 5 5 5 13 10 12 12 13 12 10 8 10 9 16 19 17 17 16 17 20 19 20
3 2 4 8 8 9 8 9 10 10 9 8 6 5 5 4 4 4 5 8 4 4 4 10 7 1 5 7 9 9 10 11 8 8 9 14 20 20 17 19 20 23 24 26
3 4 3 5 7 9 10 9 9 10 7 6 4 6 4 3 5 5 4 5 6 8 9 9 7 3 4 6 4 8 13 15 11 11 14 15 9 10 15 7 8 5 9 15
Wind_Direction
331 331 329 325 322 302 190 138 252 5 161 177 251 241 245 268 275 284 291 290 281 292 304 310 298 214 215 207 208 200 214 225 239 209 198 196 205 217 191 215 219 255 254 239
331 331 328 326 317 209 246 263 268 126 55 215 232 250 255 259 265 273 267 277 275 283 309 308 286 266 208 216 193 207 200 223 227 223 204 183 212 218 215 209 223 212 235 242
331 331 328 329 304 240 298 296 287 169 200 226 278 269 272 281 287 273 261 278 279 286 281 277 279 293 285 204 217 202 186 220 222 219 196 177 195 215 215 211 216 224 237 249
336 334 331 326 300 254 295 242 269 263 283 274 277 311 275 275 280 290 233 259 273 265 275 285 293 351 338 316 218 189 185 211 218 229 230 192 196 206 221 216 211 223 223 245
340 334 336 337 270 249 251 289 317 327 296 292 274 242 267 267 263 267 295 292 242 257 271 282 313 321 325 292 335 196 187 207 222 211 232 212 204 204 215 224 213 213 230 230
347 348 342 341 308 194 271 274 292 300 295 290 293 264 280 285 303 282 248 264 277 298 291 286 291 311 293 287 288 297 186 191 203 222 217 237 207 201 205 219 223 208 216 222
343 343 333 331 327 224 260 317 318 256 283 299 227 278 232 268 278 292 299 289 279 276 349 319 281 275 278 276 263 258 276 190 195 218 219 227 229 193 212 217 223 221 221 208
343 343 345 332 318 287 228 275 263 289 294 309 305 7 291 281 280 262 277 283 270 293 285 291 313 284 255 250 245 254 261 179 195 212 219 227 214 217 198 208 212 211 216 219
342 343 344 341 350 261 256 280 252 256 292 292 321 315 334 321 309 303 290 270 261 287 270 52 281 300 297 217 220 235 252 175 216 186 220 224 212 207 215 204 223 201 205 203
342 344 348 358 342 342 256 263 272 213 269 276 324 319 308 316 320 287 276 329 219 230 256 122 249 275 291 294 212 208 229 186 211 230 234 206 224 198 185 209 235 201 209 190
339 343 348 352 350 354 312 294 277 256 271 286 276 288 308 284 301 302 315 305 244 224 225 204 189 246 347 299 304 318 245 179 209 220 227 220 221 220 213 145 251 248 193 184
334 337 340 347 342 346 328 296 308 246 231 282 292 289 276 236 272 223 302 337 338 15 293 218 247 247 105 345 313 244 280 47 261 227 212 234 302 242 116 149 230 232 186 184
324 327 331 331 320 324 324 303 316 295 265 283 289 267 211 210 224 192 288 6 311 310 353 326 335 331 277 197 264 319 282 11 307 357 274 229 238 265 187 202 212 164 167 178
320 317 323 322 320 313 312 292 325 293 285 281 309 294 198 200 204 207 206 251 241 268 287 292 285 269 304 284 248 274 306 335 328 305 318 310 272 316 179 169 182 193 193 206
318 319 316 316 314 308 289 274 248 248 321 313 306 296 17 306 257 240 246 243 276 280 273 245 261 262 271 257 298 266 270 317 302 344 334 327 294 8 330 215 120 242 173 196
319 318 312 310 306 304 298 294 356 289 5 313 309 320 342 354 270 249 249 238 245 271 271 281 279 307 187 296 269 260 270 270 253 281 293 305 311 15 305 286 113 359 253 210
319 316 309 304 281 266 285 306 339 334 305 249 282 299 328 341 299 291 281 277 233 236 263 264 272 240 220 256 256 276 295 289 271 238 291 289 300 266 250 308 142 118 294 207
320 319 315 299 279 267 267 194 248 290 271 255 277 285 335 351 337 315 338 293 281 260 260 257 254 256 239 238 257 267 265 254 268 273 266 259 280 295 277 269 318 283 217 261
314 311 302 262 223 213 341 186 235 227 265 285 258 286 310 343 43 300 268 266 263 270 244 240 255 255 234 240 242 244 252 264 249 256 241 263 241 255 265 280 275 323 332 333
301 279 216 259 36 274 274 194 204 196 204 228 266 272 292 293 10 293 283 214 255 261 256 252 239 248 261 257 250 262 269 242 227 242 247 275 275 274 241 268 283 286 304 297
328 340 320 341 305 264 272 282 246 214 241 230 301 318 303 158 240 231 312 318 306 262 273 281 235 244 253 246 254 248 244 264 250 233 250 235 254 255 275 253 268 280 265 270
334 295 282 263 263 270 297 306 282 279 327 325 334 332 325 101 115 161 206 276 271 264 341 240 248 9 360 340 322 237 237 246 250 234 225 264 272 263 277 284 279 280 274 261
230 232 280 348 305 12 335 334 355 320 324 320 327 322 328 69 91 137 218 241 256 330 269 259 61 340 328 338 315 331 238 238 252 247 235 212 243 251 266 276 276 276 283 279
310 334 328 360 2 298 335 312 319 280 264 304 317 308 285 273 78 247 277 303 279 268 291 338 332 326 336 318 336 316 334 327 306 250 249 248 234 235 246 234 262 278 281 280
334 344 321 350 284 276 1 343 348 341 334 342 343 343 332 32 0 13 323 331 337 349 307 293 296 320 329 346 12 11 9 348 335 344 321 295 251 240 244 236 233 240 242 244
276 274 309 325 1 337 4 349 351 345 353 10 22 11 7 0 349 341 13 324 334 297 289 291 295 103 56 52 37 9 3 360 343 13 337 290 261 245 238 224 238 235 237 234
287 268 242 269 330 10 338 348 352 343 336 30 37 16 356 337 337 347 2 334 289 295 332 336 322 343 265 253 313 46 24 2 360 6 345 325 305 321 219 120 354 47 113 97